,,PA_Meas_PMT16A,,PR_Meas_QMR101_102,,RH_Meas_QMH101,,SR_Meas_QMS101,,TA_Meas_QMH101,,GenWind,,GenWind,
time,status,PA,status,PR,status,RH,status,SR,status,TA,status,DirAvg,status,SpdAvg,
2010-01-10, 00:00:04,VALID,918.788,VALID,0,VALID,97.5416,VALID,0,VALID,20.2848,VALID,54,VALID,0.447266,
2010-01-10, 00:01:04,VALID,918.781,VALID,0,VALID,97.5187,VALID,0.107441,VALID,20.3238,VALID,54,VALID,0.301562,
2010-01-10, 00:02:04,VALID,918.766,VALID,0,VALID,97.473,VALID,0.107441,VALID,20.2637,VALID,54,VALID,0.812891,
2010-01-10, 00:03:04,VALID,918.775,VALID,0.2,VALID,97.4959,VALID,0,VALID,20.2637,VALID,29,VALID,1.1707,
2010-01-10, 00:04:04,VALID,918.734,VALID,0,VALID,97.4501,VALID,0,VALID,20.1857,VALID,15,VALID,1.03672,
2010-01-10, 00:05:04,VALID,918.735,VALID,0,VALID,97.4501,VALID,0,VALID,20.1678,VALID,13,VALID,0.925,
2010-01-10, 00:06:04,VALID,918.746,VALID,0,VALID,97.5111,VALID,0,VALID,20.1662,VALID,348,VALID,0.626953,
2010-01-10, 00:07:04,VALID,918.765,VALID,0,VALID,97.5416,VALID,0.107441,VALID,20.2068,VALID,348,VALID,0.384766,
2010-01-10, 00:08:04,VALID,918.747,VALID,0.2,VALID,97.5492,VALID,0,VALID,20.2068,VALID,348,VALID,0.374609,
2010-01-10, 00:09:04,VALID,918.734,VALID,0,VALID,97.5569,VALID,0,VALID,20.2052,VALID,348,VALID,0.571875,
2010-01-10, 00:10:04,VALID,918.736,VALID,0,VALID,97.5264,VALID,0.107441,VALID,20.2068,VALID,348,VALID,0.911719,
2010-01-10, 00:11:04,VALID,918.766,VALID,0,VALID,97.4882,VALID,0,VALID,20.1873,VALID,348,VALID,0.739062,
2010-01-10, 00:12:04,VALID,918.78,VALID,0,VALID,97.5416,VALID,0,VALID,20.1678,VALID,348,VALID,0.447266,
2010-01-10, 00:13:04,VALID,918.758,VALID,0,VALID,97.5187,VALID,0,VALID,20.1873,VALID,348,VALID,1.10898,
2010-01-10, 00:14:04,VALID,918.76,VALID,0,VALID,97.5721,VALID,0,VALID,20.2068,VALID,348,VALID,0.883203,
2010-01-10, 00:15:04,VALID,918.773,VALID,0,VALID,97.4882,VALID,0,VALID,20.1467,VALID,348,VALID,1.26055,
2010-01-10, 00:16:04,VALID,918.755,VALID,0,VALID,97.3815,VALID,0,VALID,20.0688,VALID,352,VALID,1.82422,
2010-01-10, 00:17:04,VALID,918.758,VALID,0,VALID,97.4196,VALID,0,VALID,20.0508,VALID,359,VALID,1.30742,
2010-01-10, 00:18:04,VALID,918.755,VALID,0,VALID,97.4577,VALID,0,VALID,20.0118,VALID,1,VALID,1.33633,
2010-01-10, 00:19:04,VALID,918.752,VALID,0,VALID,97.4273,VALID,0.107441,VALID,19.9518,VALID,336,VALID,1.20273,
2010-01-10, 00:20:04,VALID,918.763,VALID,0,VALID,97.5111,VALID,0,VALID,19.9323,VALID,336,VALID,0.861719,
2010-01-10, 00:21:04,VALID,918.777,VALID,0,VALID,97.5111,VALID,0.107441,VALID,19.9533,VALID,336,VALID,0.794922,
2010-01-10, 00:22:04,VALID,918.77,VALID,0,VALID,97.5187,VALID,0,VALID,19.9533,VALID,336,VALID,0.664453,
2010-01-10, 00:23:04,VALID,918.753,VALID,0,VALID,97.5645,VALID,0,VALID,19.9533,VALID,336,VALID,1.16211,
2010-01-10, 00:24:04,VALID,918.75,VALID,0,VALID,97.4654,VALID,0,VALID,19.9338,VALID,31,VALID,1.65859,
2010-01-10, 00:25:04,VALID,918.738,VALID,0,VALID,97.4806,VALID,0,VALID,19.8753,VALID,31,VALID,0.951563,
2010-01-10, 00:26:04,VALID,918.741,VALID,0,VALID,97.5492,VALID,0,VALID,19.8948,VALID,31,VALID,0.511719,
2010-01-10, 00:27:04,VALID,918.713,VALID,0,VALID,97.5569,VALID,0,VALID,19.9143,VALID,31,VALID,0.810547,
2010-01-10, 00:28:04,VALID,918.69,VALID,0,VALID,97.4959,VALID,0.107441,VALID,19.8753,VALID,31,VALID,0.782812,
2010-01-10, 00:29:04,VALID,918.664,VALID,0,VALID,97.5569,VALID,0,VALID,19.8753,VALID,31,VALID,0.384375,
2010-01-10, 00:30:04,VALID,918.67,VALID,0,VALID,97.5569,VALID,0,VALID,19.8948,VALID,31,VALID,0.142188,
2010-01-10, 00:31:04,VALID,918.595,VALID,0,VALID,97.6102,VALID,0.107441,VALID,19.8948,VALID,31,VALID,0.264453,
2010-01-10, 00:32:04,VALID,918.614,VALID,0,VALID,97.6102,VALID,0,VALID,19.9143,VALID,31,VALID,0.382031,
2010-01-10, 00:33:04,VALID,918.609,VALID,0,VALID,97.6178,VALID,0,VALID,19.9533,VALID,31,VALID,0.204688,
2010-01-10, 00:34:04,VALID,918.584,VALID,0.2,VALID,97.6026,VALID,0.107441,VALID,19.9728,VALID,31,VALID,0.296484,
2010-01-10, 00:35:04,VALID,918.615,VALID,0,VALID,97.5569,VALID,0,VALID,19.9533,VALID,31,VALID,0.691016,
2010-01-10, 00:36:04,VALID,918.63,VALID,0,VALID,97.5721,VALID,0.107441,VALID,19.9338,VALID,31,VALID,0.673828,
2010-01-10, 00:37:04,VALID,918.618,VALID,0,VALID,97.6331,VALID,0,VALID,19.9923,VALID,31,VALID,0.673047,
2010-01-10, 00:38:04,VALID,918.641,VALID,0,VALID,97.6026,VALID,0.107441,VALID,19.9728,VALID,31,VALID,0.532031,
2010-01-10, 00:39:04,VALID,918.632,VALID,0.2,VALID,97.5873,VALID,0,VALID,19.9923,VALID,31,VALID,0.720703,
2010-01-10, 00:40:04,VALID,918.637,VALID,0,VALID,97.5569,VALID,0.107441,VALID,19.9728,VALID,31,VALID,0.732813,
2010-01-10, 00:41:04,VALID,918.616,VALID,0,VALID,97.5035,VALID,0.107441,VALID,19.9323,VALID,31,VALID,0.748828,
2010-01-10, 00:42:04,VALID,918.599,VALID,0.2,VALID,97.4501,VALID,0,VALID,19.8363,VALID,31,VALID,0.892969,
2010-01-10, 00:43:04,VALID,918.572,VALID,0,VALID,97.4349,VALID,0,VALID,19.7973,VALID,31,VALID,0.439453,
2010-01-10, 00:44:04,VALID,918.545,VALID,0,VALID,97.4806,VALID,0,VALID,19.7568,VALID,31,VALID,0.638672,
2010-01-10, 00:45:04,VALID,918.572,VALID,0,VALID,97.4501,VALID,0,VALID,19.7388,VALID,31,VALID,0.702734,
2010-01-10, 00:46:04,VALID,918.521,VALID,0.2,VALID,97.4654,VALID,0,VALID,19.6998,VALID,31,VALID,0.569141,
2010-01-10, 00:47:04,VALID,918.531,VALID,0,VALID,97.4806,VALID,0,VALID,19.6998,VALID,31,VALID,0.436719,
2010-01-10, 00:48:04,VALID,918.505,VALID,0,VALID,97.5187,VALID,0.107441,VALID,19.6803,VALID,31,VALID,0.394531,
2010-01-10, 00:49:04,VALID,918.532,VALID,0,VALID,97.5264,VALID,0,VALID,19.6608,VALID,31,VALID,0.4,
2010-01-10, 00:50:04,VALID,918.523,VALID,0,VALID,97.5492,VALID,0,VALID,19.6203,VALID,31,VALID,0.398047,
2010-01-10, 00:51:04,VALID,918.523,VALID,0,VALID,97.5721,VALID,0.107441,VALID,19.6608,VALID,31,VALID,0.467187,
2010-01-10, 00:52:04,VALID,918.531,VALID,0,VALID,97.5797,VALID,0,VALID,19.6413,VALID,31,VALID,0.458203,
2010-01-10, 00:53:04,VALID,918.544,VALID,0,VALID,97.5569,VALID,0,VALID,19.6413,VALID,31,VALID,0.623047,
2010-01-10, 00:54:04,VALID,918.525,VALID,0,VALID,97.6178,VALID,0,VALID,19.6608,VALID,31,VALID,0.468359,
2010-01-10, 00:55:04,VALID,918.518,VALID,0,VALID,97.6255,VALID,0.107441,VALID,19.6803,VALID,31,VALID,0,
2010-01-10, 00:56:04,VALID,918.483,VALID,0,VALID,97.6331,VALID,0,VALID,19.6803,VALID,31,VALID,0.445703,
2010-01-10, 00:57:04,VALID,918.484,VALID,0,VALID,97.5721,VALID,0,VALID,19.6413,VALID,31,VALID,0.447656,
2010-01-10, 00:58:04,VALID,918.455,VALID,0.2,VALID,97.5416,VALID,0,VALID,19.6008,VALID,31,VALID,0.454688,
2010-01-10, 00:59:04,VALID,918.434,VALID,0,VALID,97.5645,VALID,0.107441,VALID,19.5813,VALID,31,VALID,0.444141,
2010-01-10, 01:00:04,VALID,918.408,VALID,0,VALID,97.5721,VALID,0.107441,VALID,19.6008,VALID,31,VALID,0.164844,
2010-01-10, 01:01:04,VALID,918.415,VALID,0,VALID,97.5873,VALID,0.107441,VALID,19.6218,VALID,31,VALID,0.119141,
2010-01-10, 01:02:04,VALID,918.382,VALID,0,VALID,97.6331,VALID,0,VALID,19.6413,VALID,31,VALID,0.482422,
2010-01-10, 01:03:04,VALID,918.394,VALID,0,VALID,97.6255,VALID,0,VALID,19.6008,VALID,31,VALID,0.222656,
2010-01-10, 01:04:04,VALID,918.385,VALID,0,VALID,97.6483,VALID,0.107441,VALID,19.6608,VALID,31,VALID,0.131641,
2010-01-10, 01:05:04,VALID,918.402,VALID,0,VALID,97.656,VALID,0,VALID,19.6998,VALID,31,VALID,0.281641,
2010-01-10, 01:06:04,VALID,918.348,VALID,0,VALID,97.6483,VALID,0,VALID,19.6998,VALID,31,VALID,0.308203,
2010-01-10, 01:07:04,VALID,918.366,VALID,0,VALID,97.6255,VALID,0,VALID,19.6803,VALID,31,VALID,0.307813,
2010-01-10, 01:08:04,VALID,918.334,VALID,0,VALID,97.595,VALID,0.107441,VALID,19.6803,VALID,31,VALID,0.789453,
2010-01-10, 01:09:04,VALID,918.318,VALID,0,VALID,97.595,VALID,0.107441,VALID,19.6203,VALID,31,VALID,0.75625,
2010-01-10, 01:10:04,VALID,918.301,VALID,0,VALID,97.6102,VALID,0,VALID,19.6413,VALID,31,VALID,0.604297,
2010-01-10, 01:11:04,VALID,918.267,VALID,0,VALID,97.6102,VALID,0,VALID,19.6218,VALID,31,VALID,0.216406,
2010-01-10, 01:12:04,VALID,918.281,VALID,0,VALID,97.6102,VALID,0,VALID,19.6218,VALID,31,VALID,0.488281,
2010-01-10, 01:13:04,VALID,918.288,VALID,0,VALID,97.6178,VALID,0,VALID,19.6023,VALID,31,VALID,0.55625,
2010-01-10, 01:14:04,VALID,918.303,VALID,0,VALID,97.6026,VALID,0,VALID,19.6023,VALID,31,VALID,0.55625,
2010-01-10, 01:15:04,VALID,918.288,VALID,0,VALID,97.6026,VALID,0,VALID,19.5633,VALID,31,VALID,0.544141,
2010-01-10, 01:16:04,VALID,918.214,VALID,0,VALID,97.5645,VALID,0,VALID,19.5438,VALID,31,VALID,0.536328,
2010-01-10, 01:17:04,VALID,918.271,VALID,0,VALID,97.5492,VALID,0,VALID,19.5048,VALID,248,VALID,1.01484,
2010-01-10, 01:18:04,VALID,918.243,VALID,0,VALID,97.5187,VALID,0,VALID,19.4463,VALID,250,VALID,1.14688,
2010-01-10, 01:19:04,VALID,918.271,VALID,0,VALID,97.5492,VALID,0,VALID,19.4268,VALID,228,VALID,0.996875,
2010-01-10, 01:20:04,VALID,918.255,VALID,0,VALID,97.5873,VALID,0,VALID,19.3864,VALID,229,VALID,1.00977,
2010-01-10, 01:21:04,VALID,918.248,VALID,0,VALID,97.6255,VALID,0,VALID,19.3879,VALID,229,VALID,0.479688,
2010-01-10, 01:22:04,VALID,918.26,VALID,0,VALID,97.6331,VALID,0,VALID,19.3879,VALID,229,VALID,0.783594,
2010-01-10, 01:23:04,VALID,918.269,VALID,0,VALID,97.5645,VALID,0,VALID,19.3893,VALID,237,VALID,1.775,
2010-01-10, 01:24:04,VALID,918.278,VALID,0.2,VALID,97.5873,VALID,0,VALID,19.3099,VALID,237,VALID,0.709766,
2010-01-10, 01:25:04,VALID,918.246,VALID,0,VALID,97.6102,VALID,0,VALID,19.3099,VALID,237,VALID,0.860547,
2010-01-10, 01:26:04,VALID,918.266,VALID,0,VALID,97.6102,VALID,0,VALID,19.3294,VALID,317,VALID,0.782422,
2010-01-10, 01:27:04,VALID,918.255,VALID,0.2,VALID,97.6102,VALID,0.107441,VALID,19.3294,VALID,300,VALID,0.863281,
2010-01-10, 01:28:04,VALID,918.257,VALID,0.2,VALID,97.6026,VALID,0.107441,VALID,19.2514,VALID,299,VALID,0.969141,
2010-01-10, 01:29:04,VALID,918.23,VALID,0.2,VALID,97.5111,VALID,0.107441,VALID,19.1734,VALID,262,VALID,1.05508,
2010-01-10, 01:30:04,VALID,918.195,VALID,0,VALID,97.6102,VALID,0,VALID,19.1929,VALID,262,VALID,0.846875,
2010-01-10, 01:31:04,VALID,918.166,VALID,0.2,VALID,97.6331,VALID,0,VALID,19.2124,VALID,209,VALID,0.967188,
2010-01-10, 01:32:04,VALID,918.172,VALID,0.2,VALID,97.6255,VALID,0,VALID,19.1734,VALID,249,VALID,0.878516,
2010-01-10, 01:33:04,VALID,918.164,VALID,0,VALID,97.6331,VALID,0,VALID,19.1734,VALID,249,VALID,0.941797,
2010-01-10, 01:34:04,VALID,918.177,VALID,0.2,VALID,97.6483,VALID,0,VALID,19.1734,VALID,225,VALID,0.957422,
2010-01-10, 01:35:04,VALID,918.156,VALID,0,VALID,97.6102,VALID,0,VALID,19.1149,VALID,255,VALID,0.991016,
2010-01-10, 01:36:04,VALID,918.118,VALID,0,VALID,97.6178,VALID,0.107441,VALID,19.1359,VALID,262,VALID,0.444531,
2010-01-10, 01:37:04,VALID,918.125,VALID,0,VALID,97.5111,VALID,0,VALID,19.0369,VALID,222,VALID,0.845703,
2010-01-10, 01:38:04,VALID,918.128,VALID,0.2,VALID,97.5492,VALID,0,VALID,19.0175,VALID,222,VALID,0.227344,
2010-01-10, 01:39:04,VALID,918.127,VALID,0,VALID,97.6102,VALID,0,VALID,19.0175,VALID,222,VALID,0.354297,
2010-01-10, 01:40:04,VALID,918.136,VALID,0,VALID,97.6255,VALID,0,VALID,19.0369,VALID,222,VALID,0.421875,
2010-01-10, 01:41:04,VALID,918.123,VALID,0.2,VALID,97.6331,VALID,0,VALID,19.0175,VALID,222,VALID,0.412109,
2010-01-10, 01:42:04,VALID,918.103,VALID,0,VALID,97.6255,VALID,0,VALID,18.998,VALID,222,VALID,0.0347656,
2010-01-10, 01:43:04,VALID,918.069,VALID,0.2,VALID,97.7093,VALID,0,VALID,19.0369,VALID,222,VALID,0.119922,
2010-01-10, 01:44:04,VALID,918.064,VALID,0.2,VALID,97.7017,VALID,0,VALID,19.0369,VALID,305,VALID,0.325781,
2010-01-10, 01:45:04,VALID,918.072,VALID,0,VALID,97.656,VALID,0,VALID,19.0175,VALID,305,VALID,0.214844,
2010-01-10, 01:46:04,VALID,918.061,VALID,0.2,VALID,97.6331,VALID,0,VALID,18.998,VALID,305,VALID,0.114063,
2010-01-10, 01:47:04,VALID,918.046,VALID,0.2,VALID,97.6941,VALID,0,VALID,19.0175,VALID,305,VALID,0.782031,
2010-01-10, 01:48:04,VALID,918.019,VALID,0.2,VALID,97.7322,VALID,0,VALID,19.0774,VALID,305,VALID,0.166797,
2010-01-10, 01:49:04,VALID,918.041,VALID,0.2,VALID,97.6331,VALID,0,VALID,19.0175,VALID,305,VALID,0.459375,
2010-01-10, 01:50:04,VALID,918.012,VALID,0,VALID,97.6255,VALID,0.107441,VALID,18.9785,VALID,305,VALID,0.961328,
2010-01-10, 01:51:04,VALID,918.034,VALID,0.2,VALID,97.6407,VALID,0,VALID,18.9395,VALID,305,VALID,0.259375,
2010-01-10, 01:52:04,VALID,918.007,VALID,0.2,VALID,97.6636,VALID,0,VALID,18.9785,VALID,305,VALID,0.379297,
2010-01-10, 01:53:04,VALID,918.008,VALID,0,VALID,97.656,VALID,0,VALID,18.959,VALID,305,VALID,0.15,
2010-01-10, 01:54:04,VALID,917.975,VALID,0.2,VALID,97.6941,VALID,0,VALID,18.959,VALID,305,VALID,0.303516,
2010-01-10, 01:55:04,VALID,917.965,VALID,0,VALID,97.6865,VALID,0,VALID,18.959,VALID,305,VALID,0.424219,
2010-01-10, 01:56:04,VALID,917.941,VALID,0.2,VALID,97.7093,VALID,0,VALID,18.9785,VALID,305,VALID,0,
2010-01-10, 01:57:04,VALID,917.937,VALID,0,VALID,97.7017,VALID,0,VALID,18.9785,VALID,305,VALID,0.0367187,
2010-01-10, 01:58:04,VALID,917.906,VALID,0,VALID,97.7398,VALID,0,VALID,18.9785,VALID,305,VALID,0.270703,
2010-01-10, 01:59:04,VALID,917.873,VALID,0,VALID,97.7017,VALID,0,VALID,18.9785,VALID,305,VALID,0.442187,
2010-01-10, 02:00:04,VALID,917.906,VALID,0.2,VALID,97.7093,VALID,0,VALID,18.9799,VALID,305,VALID,0.0535156,
2010-01-10, 02:01:04,VALID,917.892,VALID,0,VALID,97.7322,VALID,0,VALID,18.9785,VALID,305,VALID,0.0195313,
2010-01-10, 02:02:04,VALID,917.862,VALID,0.2,VALID,97.7779,VALID,0,VALID,19.0175,VALID,305,VALID,0,
2010-01-10, 02:03:04,VALID,917.873,VALID,0,VALID,97.7474,VALID,0,VALID,19.0175,VALID,305,VALID,0.259766,
2010-01-10, 02:04:04,VALID,917.867,VALID,0.2,VALID,97.7169,VALID,0,VALID,19.0384,VALID,305,VALID,0,
2010-01-10, 02:05:04,VALID,917.9,VALID,0,VALID,97.7246,VALID,0,VALID,19.0189,VALID,305,VALID,0,
2010-01-10, 02:06:04,VALID,917.874,VALID,0.2,VALID,97.7093,VALID,0,VALID,19.0175,VALID,305,VALID,0.212109,
2010-01-10, 02:07:04,VALID,917.855,VALID,0,VALID,97.7779,VALID,0,VALID,19.0369,VALID,305,VALID,0.345703,
2010-01-10, 02:08:04,VALID,917.87,VALID,0,VALID,97.7474,VALID,0,VALID,19.0369,VALID,305,VALID,0.398047,
2010-01-10, 02:09:04,VALID,917.836,VALID,0.2,VALID,97.6712,VALID,0,VALID,19.0175,VALID,305,VALID,0.285156,
2010-01-10, 02:10:04,VALID,917.816,VALID,0,VALID,97.656,VALID,0,VALID,18.9994,VALID,305,VALID,0.266406,
2010-01-10, 02:11:04,VALID,917.821,VALID,0,VALID,97.7322,VALID,0,VALID,18.998,VALID,305,VALID,0.573047,
2010-01-10, 02:12:04,VALID,917.827,VALID,0,VALID,97.6865,VALID,0,VALID,18.998,VALID,305,VALID,0.411328,
2010-01-10, 02:13:04,VALID,917.799,VALID,0,VALID,97.7627,VALID,0,VALID,19.0175,VALID,305,VALID,0.341016,
2010-01-10, 02:14:04,VALID,917.777,VALID,0,VALID,97.7017,VALID,0.107441,VALID,18.9785,VALID,305,VALID,0.441797,
2010-01-10, 02:15:04,VALID,917.764,VALID,0,VALID,97.656,VALID,0,VALID,18.959,VALID,305,VALID,0.308984,
2010-01-10, 02:16:04,VALID,917.79,VALID,0.2,VALID,97.6788,VALID,0,VALID,18.92,VALID,305,VALID,0.230859,
2010-01-10, 02:17:04,VALID,917.744,VALID,0,VALID,97.6865,VALID,0,VALID,18.92,VALID,305,VALID,0.0175781,
2010-01-10, 02:18:04,VALID,917.785,VALID,0,VALID,97.6865,VALID,0,VALID,18.9409,VALID,305,VALID,0,
2010-01-10, 02:19:04,VALID,917.744,VALID,0,VALID,97.7246,VALID,0,VALID,18.9005,VALID,305,VALID,0,
2010-01-10, 02:20:04,VALID,917.76,VALID,0,VALID,97.7627,VALID,0,VALID,18.92,VALID,305,VALID,0,
2010-01-10, 02:21:04,VALID,917.748,VALID,0,VALID,97.7551,VALID,0,VALID,18.9005,VALID,305,VALID,0.378125,
2010-01-10, 02:22:04,VALID,917.738,VALID,0,VALID,97.7246,VALID,0,VALID,18.9214,VALID,305,VALID,0.455859,
2010-01-10, 02:23:04,VALID,917.704,VALID,0,VALID,97.7398,VALID,0,VALID,18.9005,VALID,305,VALID,0.375391,
2010-01-10, 02:24:04,VALID,917.704,VALID,0,VALID,97.7322,VALID,0,VALID,18.881,VALID,305,VALID,0.480469,
2010-01-10, 02:25:04,VALID,917.694,VALID,0,VALID,97.7169,VALID,0,VALID,18.881,VALID,305,VALID,0.350391,
2010-01-10, 02:26:04,VALID,917.658,VALID,0,VALID,97.7627,VALID,0,VALID,18.9005,VALID,305,VALID,0.467969,
2010-01-10, 02:27:04,VALID,917.633,VALID,0,VALID,97.7703,VALID,0,VALID,18.9395,VALID,305,VALID,0.584375,
2010-01-10, 02:28:04,VALID,917.657,VALID,0,VALID,97.7322,VALID,0,VALID,18.9395,VALID,305,VALID,0.447266,
2010-01-10, 02:29:04,VALID,917.624,VALID,0,VALID,97.7932,VALID,0,VALID,18.959,VALID,305,VALID,0.561328,
2010-01-10, 02:30:04,VALID,917.61,VALID,0,VALID,97.7322,VALID,0,VALID,18.9395,VALID,305,VALID,0.497266,
2010-01-10, 02:31:04,VALID,917.593,VALID,0,VALID,97.7246,VALID,0,VALID,18.9395,VALID,305,VALID,0.482812,
2010-01-10, 02:32:04,VALID,917.588,VALID,0,VALID,97.7246,VALID,0,VALID,18.9005,VALID,305,VALID,0.330078,
2010-01-10, 02:33:04,VALID,917.557,VALID,0,VALID,97.7246,VALID,0,VALID,18.92,VALID,305,VALID,0.430859,
2010-01-10, 02:34:04,VALID,917.564,VALID,0,VALID,97.7322,VALID,0,VALID,18.92,VALID,305,VALID,0.544531,
2010-01-10, 02:35:04,VALID,917.574,VALID,0,VALID,97.7474,VALID,0,VALID,18.92,VALID,305,VALID,0.5125,
2010-01-10, 02:36:04,VALID,917.577,VALID,0,VALID,97.7627,VALID,0,VALID,18.9409,VALID,305,VALID,0.425391,
2010-01-10, 02:37:04,VALID,917.559,VALID,0,VALID,97.7551,VALID,0,VALID,18.9005,VALID,305,VALID,0.432422,
2010-01-10, 02:38:04,VALID,917.552,VALID,0,VALID,97.7398,VALID,0,VALID,18.881,VALID,305,VALID,0.557031,
2010-01-10, 02:39:04,VALID,917.558,VALID,0,VALID,97.7398,VALID,0,VALID,18.9005,VALID,305,VALID,0.588281,
2010-01-10, 02:40:04,VALID,917.552,VALID,0,VALID,97.7627,VALID,0,VALID,18.9005,VALID,305,VALID,0.416406,
2010-01-10, 02:41:04,VALID,917.548,VALID,0,VALID,97.7551,VALID,0,VALID,18.9019,VALID,305,VALID,0.537891,
2010-01-10, 02:42:04,VALID,917.552,VALID,0,VALID,97.7703,VALID,0,VALID,18.9005,VALID,305,VALID,0.311719,
2010-01-10, 02:43:04,VALID,917.568,VALID,0,VALID,97.7932,VALID,0,VALID,18.92,VALID,305,VALID,0.498047,
2010-01-10, 02:44:04,VALID,917.548,VALID,0,VALID,97.7627,VALID,0,VALID,18.9409,VALID,305,VALID,0.458594,
2010-01-10, 02:45:04,VALID,917.571,VALID,0,VALID,97.7779,VALID,0,VALID,18.92,VALID,305,VALID,0.542969,
2010-01-10, 02:46:04,VALID,917.56,VALID,0,VALID,97.7779,VALID,0,VALID,18.92,VALID,305,VALID,0.0972656,
2010-01-10, 02:47:04,VALID,917.56,VALID,0,VALID,97.7474,VALID,0,VALID,18.9409,VALID,305,VALID,0.06875,
2010-01-10, 02:48:04,VALID,917.562,VALID,0,VALID,97.7856,VALID,0,VALID,18.9395,VALID,305,VALID,0,
2010-01-10, 02:49:04,VALID,917.551,VALID,0,VALID,97.7856,VALID,0,VALID,18.959,VALID,305,VALID,0,
2010-01-10, 02:50:04,VALID,917.546,VALID,0,VALID,97.8084,VALID,0.107441,VALID,18.959,VALID,305,VALID,0,
2010-01-10, 02:51:04,VALID,917.563,VALID,0,VALID,97.8084,VALID,0,VALID,18.9785,VALID,305,VALID,0,
2010-01-10, 02:52:04,VALID,917.549,VALID,0,VALID,97.8084,VALID,0,VALID,18.998,VALID,305,VALID,0,
2010-01-10, 02:53:04,VALID,917.527,VALID,0,VALID,97.816,VALID,0,VALID,18.998,VALID,305,VALID,0,
2010-01-10, 02:54:04,VALID,917.537,VALID,0,VALID,97.8237,VALID,0,VALID,18.998,VALID,305,VALID,0.475391,
2010-01-10, 02:55:04,VALID,917.49,VALID,0,VALID,97.7779,VALID,0,VALID,18.998,VALID,305,VALID,0.567578,
2010-01-10, 02:56:04,VALID,917.481,VALID,0,VALID,97.7779,VALID,0,VALID,18.998,VALID,305,VALID,0.68125,
2010-01-10, 02:57:04,VALID,917.495,VALID,0,VALID,97.7246,VALID,0,VALID,18.9785,VALID,305,VALID,0.641406,
2010-01-10, 02:58:04,VALID,917.492,VALID,0,VALID,97.7932,VALID,0,VALID,18.9785,VALID,305,VALID,0.644531,
2010-01-10, 02:59:04,VALID,917.483,VALID,0,VALID,97.7932,VALID,0,VALID,18.959,VALID,305,VALID,0.665234,
2010-01-10, 03:00:04,VALID,917.493,VALID,0,VALID,97.7703,VALID,0,VALID,18.959,VALID,305,VALID,0.602734,
2010-01-10, 03:01:04,VALID,917.484,VALID,0,VALID,97.8313,VALID,0,VALID,18.977,VALID,305,VALID,0.693359,
2010-01-10, 03:02:04,VALID,917.46,VALID,0,VALID,97.8618,VALID,0,VALID,19.0369,VALID,305,VALID,0.681641,
2010-01-10, 03:03:04,VALID,917.443,VALID,0,VALID,97.7932,VALID,0,VALID,19.0175,VALID,305,VALID,0.825391,
2010-01-10, 03:04:04,VALID,917.456,VALID,0,VALID,97.7627,VALID,0,VALID,18.9785,VALID,305,VALID,0.578516,
2010-01-10, 03:05:04,VALID,917.476,VALID,0,VALID,97.7703,VALID,0,VALID,18.9785,VALID,305,VALID,0.565234,
2010-01-10, 03:06:04,VALID,917.456,VALID,0,VALID,97.7474,VALID,0,VALID,18.9994,VALID,305,VALID,0.778906,
2010-01-10, 03:07:04,VALID,917.442,VALID,0,VALID,97.7551,VALID,0,VALID,18.959,VALID,306,VALID,0.769922,
2010-01-10, 03:08:04,VALID,917.429,VALID,0,VALID,97.8389,VALID,0,VALID,18.9785,VALID,306,VALID,0.741016,
2010-01-10, 03:09:04,VALID,917.419,VALID,0,VALID,97.816,VALID,0,VALID,19.0369,VALID,306,VALID,0.434766,
2010-01-10, 03:10:04,VALID,917.436,VALID,0,VALID,97.8008,VALID,0,VALID,19.0189,VALID,306,VALID,0.424219,
2010-01-10, 03:11:04,VALID,917.412,VALID,0,VALID,97.7932,VALID,0,VALID,18.9785,VALID,306,VALID,0.720312,
2010-01-10, 03:12:04,VALID,917.404,VALID,0,VALID,97.7398,VALID,0,VALID,18.9799,VALID,306,VALID,1.01953,
2010-01-10, 03:13:04,VALID,917.388,VALID,0,VALID,97.816,VALID,0,VALID,18.9785,VALID,306,VALID,0.651172,
2010-01-10, 03:14:04,VALID,917.393,VALID,0,VALID,97.7703,VALID,0,VALID,18.959,VALID,67,VALID,0.7875,
2010-01-10, 03:15:04,VALID,917.379,VALID,0,VALID,97.7703,VALID,0,VALID,18.959,VALID,67,VALID,0.789453,
2010-01-10, 03:16:04,VALID,917.373,VALID,0,VALID,97.7856,VALID,0,VALID,18.938,VALID,67,VALID,0.858594,
2010-01-10, 03:17:04,VALID,917.393,VALID,0,VALID,97.7932,VALID,0,VALID,18.9395,VALID,67,VALID,0.596094,
2010-01-10, 03:18:04,VALID,917.381,VALID,0,VALID,97.8313,VALID,0,VALID,18.9395,VALID,67,VALID,0.907031,
2010-01-10, 03:19:04,VALID,917.35,VALID,0,VALID,97.8008,VALID,0,VALID,18.959,VALID,67,VALID,0.591016,
2010-01-10, 03:20:04,VALID,917.364,VALID,0,VALID,97.8008,VALID,0,VALID,18.959,VALID,67,VALID,0.416406,
2010-01-10, 03:21:04,VALID,917.327,VALID,0,VALID,97.8084,VALID,0,VALID,18.959,VALID,67,VALID,0.378125,
2010-01-10, 03:22:04,VALID,917.333,VALID,0,VALID,97.7856,VALID,0,VALID,18.9395,VALID,67,VALID,0.405078,
2010-01-10, 03:23:04,VALID,917.332,VALID,0,VALID,97.8008,VALID,0,VALID,18.92,VALID,67,VALID,0.569531,
2010-01-10, 03:24:04,VALID,917.31,VALID,0,VALID,97.7932,VALID,0,VALID,18.92,VALID,67,VALID,1.08125,
2010-01-10, 03:25:04,VALID,917.293,VALID,0,VALID,97.816,VALID,0,VALID,18.9395,VALID,67,VALID,0.599219,
2010-01-10, 03:26:04,VALID,917.295,VALID,0,VALID,97.8313,VALID,0,VALID,18.92,VALID,67,VALID,0.459375,
2010-01-10, 03:27:04,VALID,917.271,VALID,0,VALID,97.8313,VALID,0,VALID,18.9395,VALID,67,VALID,0.356641,
2010-01-10, 03:28:04,VALID,917.316,VALID,0,VALID,97.8084,VALID,0.107441,VALID,18.9395,VALID,67,VALID,0.861719,
2010-01-10, 03:29:04,VALID,917.302,VALID,0,VALID,97.8084,VALID,0,VALID,18.9395,VALID,67,VALID,0.425391,
2010-01-10, 03:30:04,VALID,917.29,VALID,0,VALID,97.8389,VALID,0,VALID,18.959,VALID,67,VALID,0.802344,
2010-01-10, 03:31:04,VALID,917.231,VALID,0,VALID,97.8084,VALID,0,VALID,18.9785,VALID,67,VALID,0.29375,
2010-01-10, 03:32:04,VALID,917.236,VALID,0,VALID,97.816,VALID,0,VALID,18.9395,VALID,67,VALID,0.620313,
2010-01-10, 03:33:04,VALID,917.206,VALID,0,VALID,97.816,VALID,0,VALID,18.9005,VALID,67,VALID,0.623828,
2010-01-10, 03:34:04,VALID,917.202,VALID,0,VALID,97.8237,VALID,0,VALID,18.9019,VALID,67,VALID,0.643359,
2010-01-10, 03:35:04,VALID,917.18,VALID,0,VALID,97.816,VALID,0,VALID,18.881,VALID,67,VALID,0.497266,
2010-01-10, 03:36:04,VALID,917.166,VALID,0,VALID,97.8084,VALID,0,VALID,18.881,VALID,68,VALID,0.634375,
2010-01-10, 03:37:04,VALID,917.155,VALID,0,VALID,97.8237,VALID,0,VALID,18.881,VALID,68,VALID,0.466016,
2010-01-10, 03:38:04,VALID,917.172,VALID,0,VALID,97.8313,VALID,0,VALID,18.8615,VALID,68,VALID,0.543359,
2010-01-10, 03:39:05,VALID,917.192,VALID,0,VALID,97.8389,VALID,0,VALID,18.881,VALID,68,VALID,0.550781,
2010-01-10, 03:40:05,VALID,917.197,VALID,0,VALID,97.8389,VALID,0,VALID,18.8615,VALID,68,VALID,0.526563,
2010-01-10, 03:41:05,VALID,917.24,VALID,0,VALID,97.816,VALID,0,VALID,18.881,VALID,68,VALID,0.684375,
2010-01-10, 03:42:05,VALID,917.224,VALID,0,VALID,97.8389,VALID,0,VALID,18.8615,VALID,68,VALID,0.589453,
2010-01-10, 03:43:05,VALID,917.221,VALID,0,VALID,97.8389,VALID,0,VALID,18.881,VALID,68,VALID,0.453516,
2010-01-10, 03:44:05,VALID,917.248,VALID,0,VALID,97.8542,VALID,0,VALID,18.881,VALID,68,VALID,0.672656,